Погода в Каунасе

Поиск расширенной информации на нашем сайте:

Полезная информация:

Новости сайта



02.01.2020
Опубликован Долгосрочный прогноз погоды по городам России и ближнего зарубежья на январь 2020 года.
Карты: Прогноз на январь и февраль 2020 года, Сравнение прогнозируемой аномалии приземной температуры воздуха на январь 2020 года по разным моделям.




Погода в Каунасе - сегодня

Время (UTC), дата Ветер
(°,м/с) 
Видим.   Явления Облачность Т
(°С)
Тd
(°С)
f(%) Тe
(°С)
Pmin
(гПа)
dP
(гПа)
Po
(мм)
O2
(г/м3)
Тmin Tmax R s Состояние
почвы
06 01.06.20 030 (СВ) 5-9{09}  20000 м    ясно 
+11.7 +2.7 54 +11  1021.8  0.4  759  293  +7.9        сухая 
09 01.06.20 050 (СВ) 6-11{13}  20000 м    3/1 1500 м верхняя 
[Cu hum|Ci fib]
+14.4 +0.9 40 +14  1021.4  -0.3  759  290           
12 01.06.20 020 (С) 5-9{13}  19000 м    5/5 1500 м 
[Cu hum]
+17.2 +3.1 39 +17  1019.6  -1.7  758  287           
15 01.06.20 020 (С) 6-10{12}  20000 м    8/6 1500 м средняя 
[Cu Sc|Ac trans]
+17.6 +4.4 42 +17  1018  -1.6  757  286           
18 01.06.20 020 (С) 3-6{10}  20000 м  в посл. час ливневой дождь  9/5 1000 м кучево-дожд., средняя 
[Cb cap|Ac trans]
+13.6 +6.1 60 +14  1017.5  -0.6  756  289    +17.8  0.0     
21 01.06.20 030 (СВ) 3-6{07}  20000 м    8/4 1500 м средняя 
[Sc|Ac trans]
+11.4 +5 65 +11  1018.1  0.5  757  292           
00 02.06.20 020 (С) 3-6{07}  20000 м    ясно 
+7.9 +2.8 70 +7  1017.3  -0.9  756  296           
03 02.06.20 360 (С) 4-6{07}  20000 м    1/0 верхняя 
[Ci fib]
+5.9 +2.8 80 +4  1016.5  -0.8  755  297           
06 02.06.20 010 (С) 4-7{08}  19000 м    ясно 
+11.1 +5.1 66 +10  1015.8  -0.6  755  291  +5.6        сухая 
09 02.06.20 040 (СВ) 6-10{11}  20000 м    3/3 1470 м 
[Cu med, cong]
+16 +5.2 49 +16  1013.9  -1.7  754  286           
12 02.06.20 020 (С) 6-12{13}  19000 м    3/3 1500 м 
[Cu hum]
+17.8 +3.6 39 +18  1012.2  -1.6  752  284           
15 02.06.20 030 (СВ) 6-11{13}  20000 м    8/3 1500 м средняя 
[Cu Sc|Ac lent]
+17.7 +2.3 36 +18  1010.8  -1.4  751  284           
18 02.06.20 050 (СВ) 4-8{11}  20000 м    9/9 2000 м средняя 
[Ac As]
+16.1 +3.2 42 +16  1010.1  -0.7  751  285    +18.3       
21 02.06.20 080 (В) 4-8{09}  20000 м    10/10 1500 м 
[Sc]
+12.8 +5.9 63 +12  1010.6  0.3  751  288           
00 03.06.20 040 (СВ) 3-5{08}  20000 м  {дождь}  8/4 1470 м средняя 
[Sc|Ac trans]
+11.2 +6.3 72 +11  1009.1  -1.5  750  289      0.0     
03 03.06.20 060 (СВ) 3-6{07}  20000 м  слаб. дождь  10/10 450 м 
[Ns]
+10.3 +8.1 86 +10  1008.5  -0.6  749  290           
06 03.06.20 080 (В) 4-6{07}  20000 м  {дождь}  10/10 480 м 
[Sc]
+11 +7.8 81 +10  1008.4  -0.1  749  289  +10.2    0.2    сухая 
09 03.06.20 090 (В) 3-5{06}  20000 м    10/9 930 м верхняя 
[Cu Sc|Cs]
+12.5 +7.7 73 +12  1008.6  0.3  750  287           
12 03.06.20 030 (СВ) 4-6{09}  19000 м    8/8 1140 м 
[Cu med, cong]
+15.7 +7.4 58 +16  1006.9  -1.6  748  284           
15 03.06.20 020 (С) 4-7{09}  20000 м    8/5 1440 м кучево-дожд., средняя, верхняя 
[Cb calv|Ac trans|Ci fib]
+16.4 +7 54 +16  1005.5  -1.4  747  283           
18 03.06.20 130 (ЮВ) 1-3{10}  20000 м  в посл. час ливневой дождь  9/4 1000 м кучево-дожд., средняя, верхняя 
[Cb cap|Ac cuf|Ci ing]
+11.1 +9.2 88 +12  1005.9  0.2  747  288    +17.4  0.5     
21 03.06.20 020 (С) 2-3{03}  20000 м  {ливн. осадки}  3/3 2000 м средняя 
[Ac trans]
+9.4 +8.1 92 +9  1005.5  -0.4  747  290           
00 04.06.20 тихо () -2{03}  20000 м  {ливн. осадки}  8/3 1000 м средняя, верхняя 
[Sc|Ac trans|Cs]
+7.8 +6.9 94 +8  1004.5  -1.1  746  291      0.0     
03 04.06.20 030 (СВ) 2-4{04}  19000 м  в посл. час ливневой дождь  9/4 1500 м средняя, верхняя 
[Cu Sc|Ac cast|Ci sp]
+8 +7.1 94 +8  1003.4  -1  746  291           
06 04.06.20 140 (ЮВ) 1-2{04}  19000 м  {ливн. осадки}  9/8 300 м средняя 
[Sc|Ac trans]
+11.9 +9.3 84 +13  1002.7  -0.6  745  286  +7.7    0.0    влажная 
Время (UTC), дата Ветер
(°,м/с) 
Видим.   Явления Облачность Т
(°С)
Тd
(°С)
f(%) Тe
(°С)
Pmin
(гПа)
dP
(гПа)
Po
(мм)
O2
(г/м3)
Тmin Tmax R s Состояние
почвы

Для получения пояснительной информации подведите курсор к названию столбца.

ПОГОДА в Каунасе - архив

Всё, что Вы хотите узнать о погоде в Каунасе - удобно и подробно!

Выберите нужную дату (начиная с 1 января 2019* года) и нажмите кнопку "Найти".
Будут отображены архивные сводки погоды по пункту Каунас, начиная с указанной даты.


Отображать данные в формате CSV (для использования в таблицах Excel)


Внимание! Наш архив погоды предназначен исключительно для личного некоммерческого использования в познавательных целях. Если Вам необходимы официальные справки о состоянии погоды (для производственных, юридических, коммерческих и т.п. целей), обращайтесь в органы Росгидромета.

*Примечание: данная дата относится к архиву по метеостанциям СССР (Россия, СНГ, Балтия).
Архив по метеостанциям Зарубежной Европы и Азии (кроме Китая) хранится 10 дней, по другим регионам земного шара (Китай, Африка, Америка, Австралия, Океания) - 1 день.

Каунас - район местоположения метеостанции


Название, широта, долгота, высота метеостанции:
Каунас 54.9°ш. 23.8°д. 77 м над ур. моря [Литва]

Дополнительная информация

В oтличие oт бoльшинства пoгoдных сайтoв мы публикуем пoдрoбную метеoинфoрмацию в детальнoм прoфессиoнальнoм фoрмате.

Характеристики температуры и влажнoсти вoздуха измеряются на высoте 2 м в тени вдали oт зданий и деревьев.
Скoрoсть ветра измеряется на высoте 10 м (на урoвне рoста челoвека скoрoсть ветра ниже в 1.5-2 раза). Если метеoстанция нахoдится в гoрoде или в лесу, тo скoрoсть ветра занижена на 2-4 м/с пo сравнению с oткрытым местoм. Скoрoсть ветра над акватoриями крупных рек и oзёр, а также на вершинах хoлмoв на 2-5 м/с выше, чем в oбычных услoвиях.
Атмoсфернoе давление в разных тoчках местнoсти мoжет значительнo oтличаться oт давления на метеoстанции, в зависимoсти oт услoвий рельефа (при пoдъёме на 10 м давление пoнижается примернo на 1 мм рт.ст.).